Погода в Кневицах

Россия / Новгородская область     57°55′38″N   32°13′43″E
темп.,
°C
ветер,
м/с
пор.,
м/с
влажн.,
%
обл.,
%
осадки,
мм/ч
давл.,
гПа
погр.,
м
20 апреля, вт
вт2000:00+5в310625 0.0 1024331
03:00+2всв39765 0.0 1024216
06:00+2всв388779 0.0 1023214
09:00+7вюв4761100 0.0 1022830
12:00+8в464688 0.0 10211363
15:00+11вюв4645100 0.0 10191895
18:00+9вюв4657100 0.0 10181258
21:00+7в4866100 0.0 1017620
21 апреля, ср
ср2100:00+4в3883100 0.0 1015480
03:00+4всв2592100 0.1 1013644
06:00+4св3597100 0.4 1010623
09:00+3ссв2596100 0.8 1007447
12:00+3с2498100 0.9 1005455
15:00+3сз2498100 2.3 1005400
18:00+3зсз2597100 0.8 1005443
21:00+3зюз1398100 0.9 1006192
22 апреля, чт
чт2200:00+3ю139992 0.0 1006138
03:00+1ю22975 0.0 100736
06:00+1ю249516 0.0 100777
09:00+8ю36805 0.0 1008369
12:00+13ююз46607 0.0 10081233
15:00+14ю464861 0.6 10082040
18:00+13ююв36605 0.3 1008556
21:00+9ююв4128157 0.5 1008360
23 апреля, пт
пт2300:00+7ю379286 0.4 1009276
03:00+7зюз119599 0.4 100939
06:00+6юз1291100 0.2 100860
09:00+4з2496100 4.1 1009483
12:00+4юз2596100 1.4 1010688
15:00+6ю358095 1.5 1011898
18:00+6юв3581100 0.1 1011614
21:00+4ююв2690100 0.3 1011130
24 апреля, сб
сб2400:00+3ю2593100 0.0 1010114
03:00+2ююз2191100 0.0 101022
06:00+1ююз1189100 0.0 100913
09:00+5зюз237399 0.0 1009505
12:00+8юз345879 0.3 10081348
15:00+8юз4554100 1.2 10081548
18:00+8юз244768 0.3 10081655
21:00+3ююз22725 0.3 100918